Location: Fauquembergues
(50.6005°N, 2.0987°E)
Time: 00:35:16
(UTC+00:00)

IRS-1D - Pass Details

Date: 14 July 2020
Orbit: 739 x 817 km, 98.6° (Epoch: 03 August)

Event Time Altitude Azimuth Distance (km) Brightness Sun altitude
Rises 02:17:36 0° 15° (NNE) 3,201 8.3 -11.5°
Reaches altitude 10° 02:19:54 10° 15° (NNE) 2,267 7.2 -11.3°
Maximum altitude 02:24:53 88° 104° (ESE) 748 3.5 -10.8°
Enters shadow 02:29:30 12° 196° (SSW) 2,113 5.2 -10.4°
